FW3655 Weather Reports


Display with metric or nautical units.
time (UTC)temp
F
wind
direction
speed
MPH
gust
MPH
rain 1hr
in
rain 24hr
in
rain mn
in
humidity
%
barometer
mb
20220928115554 55 130 1.0 2.0 0.00 0.00 0.00 100 1013.7
20220928115548 55 130 0.0 1.0 0.00 0.00 0.00 100 1013.7
20220928115542 55 130 0.0 2.0 0.00 0.00 0.00 100 1013.7
20220928115506 55 304 1.0 3.0 0.00 0.00 0.00 100 1013.7
20220928113432 55 110 1.0 3.0 0.00 0.00 0.00 100 1013.7
20220928112936 55 110 0.0 3.0 0.00 0.00 0.00 100 1013.7
20220928112432 55 115 2.0 3.0 0.00 0.00 0.00 100 1013.7
20220928111932 55 115 2.0 3.0 0.00 0.00 0.00 100 1013.8
20220928111433 55 130 1.0 2.0 0.00 0.00 0.00 100 1013.7
20220928110934 55 137 1.0 3.0 0.00 0.00 0.00 100 1013.6
20220928110432 55 197 1.0 3.0 0.00 0.00 0.00 100 1013.6
20220928105930 55 74 0.0 1.0 0.00 0.00 0.00 100 1013.5
20220928105818 55 267 0.0 0.0 0.00 0.00 0.00 100 1013.5
20220928105040 55 267 0.0 2.0 0.00 0.00 0.00 100 1013.6
20220928105020 55 267 0.0 1.0 0.00 0.00 0.00 100 1013.5
20220928103928 56 221 0.0 2.0 0.00 0.00 0.00 100 1013.6
20220928103801 56 130 0.0 0.0 0.00 0.00 0.00 100 1013.3
20220928102929 56 130 0.0 1.0 0.00 0.00 0.00 100 1013.3
20220928102431 56 130 1.0 2.0 0.00 0.00 0.00 100 1013.3
20220928101930 56 130 1.0 2.0 0.00 0.00 0.00 100 1013.3
20220928101752 56 130 1.0 2.0 0.00 0.00 0.00 99 1013.2
20220928101611 56 130 0.0 2.0 0.00 0.00 0.00 99 1013.2
20220928100444 57 130 1.0 2.0 0.00 0.00 0.00 99 1013.1
20220928095927 57 118 1.0 2.0 0.00 0.00 0.00 98 1013.1
20220928095814 57 118 1.0 2.0 0.00 0.00 0.00 98 1013.0
20220928094928 58 133 1.0 2.0 0.00 0.00 0.00 98 1013.0
20220928094431 58 133 1.0 2.0 0.00 0.00 0.00 98 1012.8
20220928094336 58 133 0.0 1.0 0.00 0.00 0.00 97 1012.8
20220928093427 58 133 0.0 2.0 0.00 0.00 0.00 97 1012.8
20220928092928 59 133 1.0 2.0 0.00 0.00 0.00 97 1012.7
20220928092426 59 133 0.0 0.0 0.00 0.00 0.00 96 1012.6
20220928092210 59 133 0.0 2.0 0.00 0.00 0.00 96 1012.7
20220928090927 60 136 0.0 2.0 0.00 0.00 0.00 95 1012.5
20220928085428 61 136 1.0 2.0 0.00 0.00 0.00 95 1012.4
20220928085314 62 134 1.0 2.0 0.00 0.00 0.00 94 1012.2
20220928084816 62 134 1.0 2.0 0.00 0.00 0.00 94 1012.2
20220928083931 62 140 1.0 2.0 0.00 0.00 0.00 94 1012.1
20220928083422 63 139 1.0 2.0 0.00 0.00 0.00 94 1012.1
20220928082923 63 168 0.0 2.0 0.00 0.00 0.00 94 1012.0
20220928082422 64 180 0.0 1.0 0.00 0.00 0.00 94 1012.0
20220928082301 64 180 0.0 2.0 0.00 0.00 0.00 94 1011.9
20220928081425 64 228 0.0 2.0 0.00 0.00 0.00 95 1011.8
20220928080925 64 133 0.0 0.0 0.00 0.00 0.00 95 1011.8
20220928080426 65 133 0.0 0.0 0.00 0.00 0.00 95 1011.6
20220928080051 65 105 0.0 0.0 0.00 0.00 0.00 95 1011.5
20220928080013 65 105 0.0 0.0 0.00 0.00 0.00 95 1011.6
20220928074921 65 105 0.0 4.0 0.00 0.00 0.00 95 1011.3
20220928074421 65 105 1.0 4.0 0.00 0.00 0.00 95 1011.3
20220928073923 65 110 2.0 4.0 0.00 0.00 0.00 95 1011.3
20220928073424 65 116 1.0 3.0 0.00 0.00 0.00 95 1011.1
20220928072907 65 140 1.0 5.0 0.00 0.00 0.00 95 1011.1
20220928072406 66 108 3.0 9.0 0.00 0.00 0.00 95 1011.0
20220928071911 66 109 6.0 11.0 0.00 0.00 0.00 95 1011.0
20220928071337 66 110 5.0 13.0 0.00 0.00 0.00 95 1010.8
20220928070924 67 110 7.0 13.0 0.00 0.00 0.00 95 1010.7
20220928070854 66 105 10.0 13.0 0.00 0.00 0.00 95 1010.8
20220928070416 67 118 8.0 13.0 0.00 0.00 0.00 95 1010.7
20220928065658 68 132 7.0 12.0 0.00 0.00 0.00 95 1010.4
20220928065519 67 103 7.0 15.0 0.00 0.00 0.00 95 1010.6
20220928065244 68 92 10.0 15.0 0.00 0.00 0.00 95 1010.5
20220928065229 68 103 9.0 12.0 0.00 0.00 0.00 94 1010.5
20220928063333 68 116 12.0 16.0 0.00 0.00 0.00 94 1010.3
20220928062833 68 116 12.0 16.0 0.00 0.00 0.00 94 1010.2
20220928062330 68 95 6.0 15.0 0.00 0.00 0.00 95 1010.1
20220928061831 69 134 10.0 15.0 0.00 0.00 0.00 94 1010.1
20220928061334 69 106 8.0 14.0 0.00 0.00 0.00 94 1010.0
20220928061149 69 122 10.0 15.0 0.00 0.00 0.00 94 1009.8
20220928061014 69 158 9.0 15.0 0.00 0.00 0.00 94 1009.9
20220928055825 69 112 8.0 18.0 0.00 0.00 0.00 94 1009.8
20220928055332 70 120 12.0 18.0 0.00 0.00 0.00 93 1009.6
20220928055241 70 108 9.0 17.0 0.00 0.00 0.00 93 1009.6
20220928054323 71 106 12.0 17.0 0.00 0.00 0.00 92 1009.4
20220928053822 71 137 11.0 16.0 0.00 0.00 0.00 92 1009.3
20220928053320 72 77 8.0 12.0 0.00 0.00 0.00 90 1009.3
20220928052823 73 123 9.0 14.0 0.00 0.00 0.00 87 1009.2
20220928052321 76 101 8.0 14.0 0.00 0.00 0.00 83 1009.4
20220928051824 78 180 5.0 9.0 0.00 0.00 0.00 59 1009.3
20220928051324 78 300 2.0 6.0 0.00 0.00 0.00 59 1009.2
20220928050824 79 249 2.0 4.0 0.00 0.00 0.00 61 1009.2
20220928050323 78 301 2.0 5.0 0.00 0.00 0.00 63 1009.1
20220928045824 79 39 2.0 5.0 0.00 0.00 0.00 60 1009.0
20220928045727 79 205 2.0 4.0 0.00 0.00 0.00 61 1008.8
20220928044824 79 289 2.0 4.0 0.00 0.00 0.00 62 1008.9
20220928044321 79 256 2.0 6.0 0.00 0.00 0.00 67 1008.8
20220928044120 79 16 3.0 6.0 0.00 0.00 0.00 63 1008.8
20220928043716 80 294 1.0 4.0 0.00 0.00 0.00 68 1008.9
20220928043210 80 324 2.0 4.0 0.00 0.00 0.00 66 1008.8
20220928042612 80 82 2.0 5.0 0.00 0.00 0.00 66 1008.8
20220928041821 80 246 1.0 5.0 0.00 0.00 0.00 70 1008.9
20220928041718 80 315 2.0 5.0 0.00 0.00 0.00 67 1008.9
20220928040822 80 311 2.0 5.0 0.00 0.00 0.00 64 1008.8
20220928040318 80 293 3.0 7.0 0.00 0.00 0.00 66 1008.7
20220928035821 80 253 3.0 7.0 0.00 0.00 0.00 67 1008.7
20220928035322 80 314 2.0 4.0 0.00 0.00 0.00 65 1008.8
20220928034832 80 274 2.0 7.0 0.00 0.00 0.00 64 1008.7
20220928034319 80 205 2.0 7.0 0.00 0.00 0.00 68 1008.7
20220928033822 80 296 3.0 12.0 0.00 0.00 0.00 68 1008.7
20220928033325 80 266 3.0 12.0 0.00 0.00 0.00 64 1008.8
20220928032823 80 277 2.0 9.0 0.00 0.00 0.00 71 1008.8
20220928032322 80 327 2.0 9.0 0.00 0.00 0.00 71 1008.8
20220928031820 80 335 2.0 5.0 0.00 0.00 0.00 70 1008.8
20220928031326 80 274 3.0 6.0 0.00 0.00 0.00 71 1008.9
20220928031143 80 318 2.0 5.0 0.00 0.00 0.00 73 1008.8
20220928030518 80 291 2.0 7.0 0.00 0.00 0.00 73 1009.0
20220928030321 80 324 2.0 7.0 0.00 0.00 0.00 74 1008.9
20220928025314 80 313 2.0 5.0 0.00 0.00 0.00 76 1009.0
20220928024814 80 324 4.0 6.0 0.00 0.00 0.00 76 1008.9
20220928024311 80 310 3.0 6.0 0.00 0.00 0.00 78 1008.9
20220928023814 76 310 3.0 5.0 0.00 0.00 0.00 83 1009.0
20220928023608 76 282 3.0 6.0 0.00 0.00 0.00 83 1009.2
20220928022805 75 300 2.0 10.0 0.00 0.00 0.00 80 1009.2
20220928022316 76 314 5.0 10.0 0.00 0.00 0.00 81 1009.2
20220928021809 77 280 2.0 7.0 0.00 0.00 0.00 80 1009.2
20220928021549 78 284 2.0 5.0 0.00 0.00 0.00 82 1009.5
20220928021448 77 303 2.0 5.0 0.00 0.00 0.00 78 1009.3
20220928020307 76 328 2.0 4.0 0.00 0.00 0.00 83 1009.4
20220928015807 75 180 2.0 3.0 0.00 0.00 0.00 84 1009.6
20220928015306 76 48 2.0 3.0 0.00 0.00 0.00 84 1009.6
20220928014818 76 5 2.0 5.0 0.00 0.00 0.00 86 1009.8
20220928014305 76 48 2.0 5.0 0.00 0.00 0.00 88 1009.9
20220928014236 76 72 3.0 5.0 0.00 0.00 0.00 87 1010.0
20220928013306 75 5 2.0 3.0 0.00 0.00 0.00 89 1010.4
20220928013227 74 37 2.0 3.0 0.00 0.00 0.00 87 1010.3
20220928012640 73 24 1.0 2.0 0.00 0.00 0.00 87 1010.5
20220928012209 73 341 1.0 3.0 0.00 0.00 0.00 90 1010.6
20220928011305 73 325 2.0 3.0 0.00 0.00 0.00 86 1010.6
20220928010808 73 17 0.0 2.0 0.00 0.00 0.00 86 1010.4
20220928010310 73 17 0.0 3.0 0.00 0.00 0.00 85 1010.6
20220928005810 73 6 2.0 3.0 0.00 0.00 0.00 86 1010.7
20220928005624 74 232 2.0 4.0 0.00 0.00 0.00 86 1010.9
20220928005444 74 282 1.0 4.0 0.00 0.00 0.00 88 1010.8
20220928004650 75 315 1.0 4.0 0.00 0.00 0.00 88 1011.1
20220928004458 74 346 0.0 4.0 0.00 0.00 0.00 88 1011.0
20220928003306 75 289 1.0 5.0 0.00 0.00 0.00 87 1011.1
20220928002824 74 279 2.0 5.0 0.00 0.00 0.00 84 1011.1
20220928002312 75 331 1.0 5.0 0.00 0.00 0.00 90 1011.1
20220928002119 74 294 1.0 4.0 0.00 0.00 0.00 88 1011.3
20220928002017 74 269 2.0 5.0 0.00 0.00 0.00 88 1011.2
20220928000809 74 218 1.0 3.0 0.00 0.00 0.00 91 1011.3
20220928000307 73 351 1.0 3.0 0.00 0.00 0.00 89 1011.4
20220928000241 72 284 1.0 3.0 0.00 0.00 0.00 91 1011.4
20220927235643 70 303 0.0 2.0 0.00 0.00 0.00 91 1011.6
20220927235453 71 290 1.0 3.0 0.00 0.00 0.00 92 1011.5
20220927234311 70 341 1.0 2.0 0.00 0.00 0.00 93 1011.7
20220927234206 69 352 1.0 2.0 0.00 0.00 0.00 94 1011.7
20220927233314 69 54 1.0 3.0 0.00 0.00 0.00 94 1011.7
20220927233128 69 110 1.0 3.0 0.00 0.00 0.00 97 1011.9
20220927232940 69 71 1.0 3.0 0.00 0.00 0.00 95 1011.9
20220927232018 67 342 0.0 3.0 0.00 0.00 0.00 98 1012.0
20220927231909 68 167 1.0 3.0 0.00 0.00 0.00 96 1011.9
20220927231602 68 178 1.0 3.0 0.00 0.00 0.00 97 1012.1
20220927231557 67 171 1.0 3.0 0.00 0.00 0.00 98 1012.1
20220927231419 68 127 1.0 3.0 0.00 0.00 0.00 96 1012.0
20220927225249 66 341 1.0 3.0 0.00 0.00 0.00 99 1012.1
20220927225226 65 269 2.0 3.0 0.00 0.00 0.00 99 1012.2
20220927224317 64 349 1.0 3.0 0.00 0.00 0.00 99 1012.3
20220927224310 63 304 1.0 3.0 0.00 0.00 0.00 100 1012.2
20220927224254 64 332 0.0 1.0 0.00 0.00 0.00 99 1012.2
20220927223811 64 332 0.0 2.0 0.00 0.00 0.00 99 1012.2
20220927223337 64 332 0.0 2.0 0.00 0.00 0.00 99 1012.4
20220927222429 64 175 1.0 3.0 0.00 0.00 0.00 100 1012.2
20220927221622 63 304 0.0 3.0 0.00 0.00 0.00 100 1012.3
20220927220743 62 329 1.0 3.0 0.00 0.00 0.00 100 1012.4
20220927220237 62 327 1.0 3.0 0.00 0.00 0.00 100 1012.5
20220927215957 60 331 2.0 2.0 0.00 0.00 0.00 100 1012.4
20220927215951 60 289 0.0 2.0 0.00 0.00 0.00 100 1012.3
20220927215837 61 308 0.0 2.0 0.00 0.00 0.00 100 1012.4
20220927214237 60 349 1.0 2.0 0.00 0.00 0.00 100 1012.5
20220927213741 58 305 1.0 3.0 0.00 0.00 0.00 100 1012.6
20220927213240 58 305 1.0 3.0 0.00 0.00 0.00 100 1012.6
20220927212739 58 286 1.0 2.0 0.00 0.00 0.00 100 1012.6
20220927212653 58 345 0.0 2.0 0.00 0.00 0.00 100 1012.5
20220927211738 57 88 0.0 1.0 0.00 0.00 0.00 100 1012.5
20220927211236 57 88 1.0 1.0 0.00 0.00 0.00 100 1012.5
20220927210857 57 129 1.0 3.0 0.00 0.00 0.00 100 1012.4
20220927210821 56 129 0.0 2.0 0.00 0.00 0.00 100 1012.4
20220927210251 56 129 1.0 2.0 0.00 0.00 0.00 100 1012.4
20220927205543 56 113 2.0 3.0 0.00 0.00 0.00 100 1012.4
20220927204723 56 119 0.0 1.0 0.00 0.00 0.00 100 1012.3
20220927204223 55 119 0.0 1.0 0.00 0.00 0.00 100 1012.3
20220927203721 54 119 0.0 1.0 0.00 0.00 0.00 100 1012.4
20220927203221 54 119 0.0 1.0 0.00 0.00 0.00 100 1012.1
20220927202721 54 119 0.0 0.0 0.00 0.00 0.00 100 1012.2
20220927202219 53 119 0.0 1.0 0.00 0.00 0.00 100 1012.2
20220927202016 53 119 1.0 4.0 0.00 0.00 0.00 100 1012.1
20220927201957 53 119 1.0 4.0 0.00 0.00 0.00 100 1012.2
20220927201844 53 119 0.0 2.0 0.00 0.00 0.00 100 1012.3
20220927200219 53 123 1.0 3.0 0.00 0.00 0.00 100 1012.0
20220927195718 53 118 0.0 2.0 0.00 0.00 0.00 100 1011.9
20220927195549 53 118 1.0 3.0 0.00 0.00 0.00 100 1011.8
20220927194718 53 118 2.0 3.0 0.00 0.00 0.00 100 1011.7
20220927194218 53 123 2.0 3.0 0.00 0.00 0.00 100 1011.7
20220927193957 53 123 1.0 1.0 0.00 0.00 0.00 100 1011.6
20220927193215 53 123 0.0 2.0 0.00 0.00 0.00 100 1011.5
20220927193054 53 123 1.0 2.0 0.00 0.00 0.00 100 1011.3
20220927192223 53 123 0.0 3.0 0.00 0.00 0.00 100 1011.2
20220927191707 53 123 1.0 3.0 0.00 0.00 0.00 100 1011.0
20220927191206 53 123 2.0 2.0 0.00 0.00 0.00 100 1011.0
20220927190715 53 123 0.0 2.0 0.00 0.00 0.00 100 1011.0
20220927190212 53 123 0.0 2.0 0.00 0.00 0.00 100 1011.0
20220927190155 53 123 0.0 2.0 0.00 0.00 0.00 100 1010.8
20220927190149 53 123 1.0 2.0 0.00 0.00 0.00 100 1010.9
20220927190143 53 123 0.0 2.0 0.00 0.00 0.00 100 1010.9
20220927184532 53 123 0.0 2.0 0.00 0.00 0.00 100 1010.7
20220927183632 53 123 1.0 2.0 0.00 0.00 0.00 100 1010.8
20220927183530 53 123 1.0 2.0 0.00 0.00 0.00 100 1010.7
20220927182633 53 123 1.0 3.0 0.00 0.00 0.00 100 1010.8
20220927182134 54 123 2.0 3.0 0.00 0.00 0.00 100 1010.6
20220927181634 54 112 1.0 2.0 0.00 0.00 0.00 100 1010.5
20220927181107 54 139 1.0 2.0 0.00 0.00 0.00 100 1010.5
20220927181009 54 123 0.0 1.0 0.00 0.00 0.00 100 1010.3
20220927180538 54 178 0.0 1.0 0.00 0.00 0.00 100 1010.3
20220927175617 54 178 1.0 1.0 0.00 0.00 0.00 100 1010.4
20220927175110 53 180 0.0 1.0 0.00 0.00 0.00 100 1010.4
20220927174948 53 180 0.0 1.0 0.00 0.00 0.00 100 1010.4
20220927174107 53 180 0.0 1.0 0.00 0.00 0.00 100 1010.5
20220927173611 53 203 0.0 1.0 0.00 0.00 0.00 100 1010.5
20220927173110 53 203 0.0 0.0 0.00 0.00 0.00 100 1010.5
20220927172608 53 203 0.0 0.0 0.00 0.00 0.00 100 1010.6
20220927172111 53 203 0.0 1.0 0.00 0.00 0.00 100 1010.6
20220927172048 53 203 0.0 1.0 0.00 0.00 0.00 100 1010.5
20220927171454 53 234 0.0 2.0 0.00 0.00 0.00 100 1010.4
20220927170610 53 246 1.0 2.0 0.00 0.00 0.00 100 1010.6
20220927170149 53 168 0.0 1.0 0.00 0.00 0.00 100 1010.5
20220927170122 53 168 0.0 1.0 0.00 0.00 0.00 100 1010.4
20220927165523 53 149 0.0 1.0 0.00 0.00 0.00 100 1010.6
20220927164618 53 149 0.0 0.0 0.00 0.00 0.00 100 1010.6
20220927164442 53 149 0.0 0.0 0.00 0.00 0.00 100 1010.6
20220927163612 54 149 0.0 0.0 0.00 0.00 0.00 100 1010.8
20220927163423 54 149 0.0 0.0 0.00 0.00 0.00 100 1011.0
20220927162607 54 149 0.0 0.0 0.00 0.00 0.00 100 1011.1
20220927162453 54 149 0.0 0.0 0.00 0.00 0.00 100 1011.0
20220927161605 54 149 0.0 1.0 0.00 0.00 0.00 100 1011.0
20220927161108 54 149 0.0 1.0 0.00 0.00 0.00 100 1011.1
20220927160602 54 149 0.0 1.0 0.00 0.00 0.00 100 1011.1
20220927160512 55 149 0.0 2.0 0.00 0.00 0.00 100 1011.2
20220927160222 54 149 0.0 2.0 0.00 0.00 0.00 100 1011.2
20220927155524 55 149 1.0 2.0 0.00 0.00 0.00 100 1011.5
20220927155009 55 149 1.0 2.0 0.00 0.00 0.00 100 1011.5
20220927154412 55 149 1.0 2.0 0.00 0.00 0.00 100 1011.6
20220927153601 55 149 0.0 2.0 0.00 0.00 0.00 100 1011.7
20220927153100 55 149 1.0 2.0 0.00 0.00 0.00 100 1011.7
20220927152603 55 149 0.0 2.0 0.00 0.00 0.00 100 1011.8
20220927152108 55 149 0.0 0.0 0.00 0.00 0.00 100 1011.7
20220927151602 55 149 0.0 1.0 0.00 0.00 0.00 100 1011.7
20220927151101 55 149 0.0 2.0 0.00 0.00 0.00 100 1011.7
20220927150605 55 149 0.0 2.0 0.00 0.00 0.00 100 1011.8
20220927150107 55 180 1.0 1.0 0.00 0.00 0.00 100 1011.9
20220927145602 55 212 0.0 1.0 0.00 0.00 0.00 100 1011.9
20220927145106 55 234 0.0 0.0 0.00 0.00 0.00 100 1012.1
20220927145020 55 234 0.0 0.0 0.00 0.00 0.00 100 1012.1
20220927144100 55 234 0.0 0.0 0.00 0.00 0.00 100 1012.0
20220927143601 55 234 0.0 2.0 0.00 0.00 0.00 100 1012.1
20220927143100 55 234 0.0 2.0 0.00 0.00 0.00 100 1012.2
20220927143008 55 224 1.0 2.0 0.00 0.00 0.00 100 1012.3
20220927142444 55 156 0.0 1.0 0.00 0.00 0.00 100 1012.3
20220927141937 55 156 0.0 1.0 0.00 0.00 0.00 100 1012.4
20220927141058 54 156 0.0 0.0 0.00 0.00 0.00 100 1012.5
20220927140822 54 156 1.0 2.0 0.00 0.00 0.00 100 1012.6
20220927140816 54 20 1.0 2.0 0.00 0.00 0.00 100 1012.6
20220927140754 54 156 0.0 2.0 0.00 0.00 0.00 100 1012.6
20220927140706 54 156 0.0 1.0 0.00 0.00 0.00 100 1012.5
20220927140223 54 156 0.0 1.0 0.00 0.00 0.00 100 1012.4
20220927134446 54 6 1.0 2.0 0.00 0.00 0.00 100 1012.8
20220927133604 55 255 0.0 0.0 0.00 0.00 0.00 100 1012.8
20220927133059 55 255 0.0 1.0 0.00 0.00 0.00 100 1012.6
20220927132556 55 255 0.0 1.0 0.00 0.00 0.00 100 1012.6
20220927132455 55 248 0.0 0.0 0.00 0.00 0.00 100 1012.7
20220927131556 55 249 0.0 0.0 0.00 0.00 0.00 100 1012.6
20220927131424 55 248 0.0 0.0 0.00 0.00 0.00 100 1012.7
20220927130601 55 248 0.0 0.0 0.00 0.00 0.00 100 1012.8
20220927130103 55 248 0.0 0.0 0.00 0.00 0.00 100 1012.9
20220927125607 55 297 0.0 0.0 0.00 0.00 0.00 100 1013.0
20220927125100 55 297 0.0 1.0 0.00 0.00 0.00 100 1012.9
20220927124626 56 334 0.0 0.0 0.00 0.00 0.00 100 1013.1
20220927124620 55 308 1.0 1.0 0.00 0.00 0.00 100 1013.0
20220927124605 55 297 0.0 1.0 0.00 0.00 0.00 100 1012.9
20220927123056 55 334 0.0 1.0 0.00 0.00 0.00 100 1013.1
20220927122555 56 334 0.0 2.0 0.00 0.00 0.00 100 1013.1
20220927122513 56 16 1.0 2.0 0.00 0.00 0.00 100 1013.1
20220927121711 56 161 0.0 0.0 0.00 0.00 0.00 100 1013.3
20220927121623 56 16 1.0 2.0 0.00 0.00 0.00 100 1013.2
20220927121145 56 235 0.0 1.0 0.00 0.00 0.00 100 1013.2
20220927120722 56 161 0.0 0.0 0.00 0.00 0.00 100 1013.2
20220927120629 56 161 0.0 0.0 0.00 0.00 0.00 100 1013.2